Change the Weather History Date:

Thursday, March 15, 2012

  Actual Average Record
Temperature  
Mean Temperature 52 °F -  
Max Temperature 62 °F 62 °F 69 °F (1999)
Min Temperature 42 °F 45 °F 35 °F (2013)
Degree Days  
Heating Degree Days 13    
Growing Degree Days 2 (Base 50)    
Moisture  
Dew Point 44 °F    
Average Humidity 73    
Maximum Humidity 94    
Minimum Humidity 52    
Precipitation  
Precipitation 0.00 in 0.11 in - ()
Sea Level Pressure  
Sea Level Pressure 30.34 in    
Wind  
Wind Speed 3 mph ()    
Max Wind Speed 9 mph    
Max Gust Speed -    
Visibility 4.1 miles    
Events      
Averages and records for this station are not official NWS values.
T = Trace of Precipitation, MM = Missing Value Source: Averaged Metar Reports

Daily Weather History Graph

Daily Weather History Graph

Search for Another Location

Airport or City:

Trip Planner

Search our weather history database for the weather conditions in past years. The results will help you decide how hot, cold, wet, or windy it might be!

Date:

Astronomy

Mar. 15, 2012 Rise Set
Actual Time 6:14 AM CET 6:09 PM CET
Civil Twilight 5:46 AM CET 6:37 PM CET
Nautical Twilight 5:14 AM CET 7:09 PM CET
Astronomical Twilight 4:42 AM CET 7:41 PM CET
Moon 1:28 AM CET (3/15) 11:06 AM CET (3/15)
Length of Visible Light 12h 50m
Length of Day
11h 55m
Last Quarter, 46% of the Moon is Illuminated
Mar 15
Last Quarter
Mar 22
New
Mar 30
First Quarter
Apr 6
Full
Apr 13
Last Quarter

Hourly Weather History & Observations

Time (CET) Temp. Windchill Dew Point Humidity Pressure Visibility Wind Dir Wind Speed Gust Speed Precip Events Conditions
12:20 AM 48.2 °F - 42.8 °F 82% 30.33 in - Calm Calm - N/A   Clear
12:50 AM 46.4 °F - 41.0 °F 81% 30.33 in - Calm Calm - N/A   Clear
1:20 AM 46.4 °F - 42.8 °F 87% 30.33 in - North 1.2 mph - N/A   Clear
1:50 AM 46.4 °F - 41.0 °F 81% 30.33 in - West 1.2 mph - N/A   Clear
2:20 AM 42.8 °F - 39.2 °F 87% 30.33 in - North 1.2 mph - N/A   Clear
2:50 AM 44.6 °F - 41.0 °F 87% 30.33 in - North 2.3 mph - N/A   Clear
3:20 AM 44.6 °F - 41.0 °F 87% 30.33 in - North 2.3 mph - N/A   Clear
3:50 AM 42.8 °F 41.1 °F 39.2 °F 87% 30.33 in - North 3.5 mph - N/A   Clear
4:20 AM 44.6 °F 43.1 °F 39.2 °F 81% 30.33 in - NNW 3.5 mph - N/A   Clear
4:50 AM 44.6 °F - 37.4 °F 76% 30.33 in - NNW 2.3 mph - N/A   Clear
5:20 AM 44.6 °F - 37.4 °F 76% 30.33 in - NNW 2.3 mph - N/A   Clear
5:50 AM 42.8 °F - 35.6 °F 76% 30.33 in - North 2.3 mph - N/A   Clear
6:20 AM 44.6 °F 43.1 °F 39.2 °F 81% 30.33 in - NNW 3.5 mph - N/A   Clear
6:50 AM 44.6 °F - 39.2 °F 81% 30.33 in - Variable 2.3 mph - N/A   Clear
7:20 AM 46.4 °F 45.2 °F 39.2 °F 76% 30.33 in - NW 3.5 mph - N/A   Clear
7:50 AM 48.2 °F - 41.0 °F 76% 30.33 in - NNE 3.5 mph - N/A   Clear
8:20 AM 51.8 °F - 41.0 °F 67% 30.36 in - NE 3.5 mph - N/A   Clear
8:50 AM 51.8 °F - 42.8 °F 71% 30.36 in - NE 3.5 mph - N/A   Clear
9:20 AM 55.4 °F - 44.6 °F 67% 30.36 in - NE 3.5 mph - N/A   Clear
9:50 AM 57.2 °F - 44.6 °F 63% 30.36 in - North 3.5 mph - N/A   Clear
10:20 AM 59.0 °F - 44.6 °F 59% 30.36 in - NE 4.6 mph - N/A   Clear
10:50 AM 60.8 °F - 42.8 °F 52% 30.36 in - Variable 2.3 mph - N/A   Clear
11:20 AM 60.8 °F - 42.8 °F 52% 30.36 in - NW 3.5 mph - N/A   Clear
11:50 AM 62.6 °F - 46.4 °F 55% 30.33 in - South 4.6 mph - N/A   Clear
12:20 PM - - - N/A% - - South 6.9 mph - N/A   Unknown
12:50 PM 60.8 °F - 48.2 °F 63% 30.33 in - South 8.1 mph - N/A   Clear
1:20 PM 62.6 °F - 48.2 °F 59% 30.33 in - South 9.2 mph - N/A   Clear
1:50 PM 62.6 °F - 48.2 °F 59% 30.33 in - South 8.1 mph - N/A   Clear
2:20 PM 62.6 °F - 46.4 °F 55% 30.33 in - South 8.1 mph - N/A   Clear
2:50 PM 62.6 °F - 46.4 °F 55% 30.33 in - South 9.2 mph - N/A   Clear
3:20 PM 62.6 °F - 46.4 °F 55% 30.33 in - SSW 8.1 mph - N/A   Clear
3:50 PM 62.6 °F - 44.6 °F 52% 30.33 in - South 5.8 mph - N/A   Clear
4:20 PM 62.6 °F - 46.4 °F 55% 30.33 in - South 5.8 mph - N/A   Clear
4:50 PM 60.8 °F - 42.8 °F 52% 30.33 in - NW 5.8 mph - N/A   Clear
5:20 PM 60.8 °F - 44.6 °F 55% 30.33 in - West 4.6 mph - N/A   Clear
5:50 PM 59.0 °F - 44.6 °F 59% 30.33 in - NW 3.5 mph - N/A   Clear
6:20 PM 57.2 °F - 46.4 °F 67% 30.33 in - Variable 2.3 mph - N/A   Clear
6:50 PM 55.4 °F - 48.2 °F 77% 30.36 in - NNW 3.5 mph - N/A   Clear
7:20 PM 55.4 °F - 48.2 °F 77% 30.36 in - NW 5.8 mph - N/A   Clear
7:50 PM 53.6 °F - 50.0 °F 88% 30.36 in - NW 4.6 mph - N/A   Clear
8:20 PM 53.6 °F - 50.0 °F 88% 30.36 in - NW 3.5 mph - N/A   Clear
8:50 PM 53.6 °F - 48.2 °F 82% 30.36 in - East 1.2 mph - N/A   Clear
9:20 PM 51.8 °F - 48.2 °F 88% 30.36 in - East 3.5 mph - N/A   Clear
9:50 PM 51.8 °F - 48.2 °F 88% 30.39 in 5.0 mi East 3.5 mph - N/A   Unknown
10:20 PM 50.0 °F - 46.4 °F 87% 30.39 in 4.3 mi Calm Calm - N/A   Unknown
10:50 PM 50.0 °F - 48.2 °F 94% 30.39 in 3.7 mi Calm Calm - N/A   Unknown
11:20 PM 48.2 °F - 46.4 °F 93% 30.39 in 3.7 mi West 1.2 mph - N/A   Unknown
11:50 PM 51.8 °F - 50.0 °F 94% 30.39 in 3.7 mi Variable 2.3 mph - N/A   Scattered Clouds